This is the latest recevied weather packets stored in our database for station/object DN9EL-10. If no packets are shown the sender has not sent any weather packets the latest 10 day(s).
| Time | Temp. | Humidity | Pressure | Rain* | Wind** | Luminosity | Snow |
|---|---|---|---|---|---|---|---|
| 1777388327 | 22.22° C | 36% | 967.5 hPa | - | - | - | - |
| 1777387427 | 22.22° C | 36% | 967.5 hPa | - | - | - | - |
| 1777386527 | 22.22° C | 36% | 967.6 hPa | - | - | - | - |
| 1777385627 | 21.67° C | 37% | 967.5 hPa | - | - | - | - |
| 1777384727 | 21.11° C | 37% | 967.6 hPa | - | - | - | - |
| 1777383827 | 21.11° C | 38% | 967.6 hPa | - | - | - | - |
| 1777382927 | 20.56° C | 38% | 967.7 hPa | - | - | - | - |
| 1777382027 | 20° C | 38% | 967.7 hPa | - | - | - | - |
| 1777381126 | 19.44° C | 39% | 967.7 hPa | - | - | - | - |
| 1777380226 | 19.44° C | 39% | 967.7 hPa | - | - | - | - |
| 1777379326 | 18.89° C | 39% | 967.8 hPa | - | - | - | - |
| 1777378426 | 18.33° C | 40% | 967.8 hPa | - | - | - | - |
| 1777377526 | 17.78° C | 41% | 967.7 hPa | - | - | - | - |
| 1777376626 | 17.22° C | 41% | 967.8 hPa | - | - | - | - |
| 1777375725 | 16.67° C | 41% | 967.6 hPa | - | - | - | - |
| 1777374825 | 15.56° C | 42% | 967.6 hPa | - | - | - | - |
| 1777373925 | 15° C | 44% | 967.6 hPa | - | - | - | - |
| 1777373025 | 14.44° C | 44% | 967.6 hPa | - | - | - | - |
| 1777372125 | 13.33° C | 44% | 967.6 hPa | - | - | - | - |
| 1777370973 | 12.78° C | 45% | 967.7 hPa | - | - | - | - |
| 1777370073 | 11.67° C | 45% | 967.7 hPa | - | - | - | - |
| 1777369173 | 11.11° C | 47% | 967.7 hPa | - | - | - | - |
| 1777367436 | 9.44° C | 48% | 967.8 hPa | - | - | - | - |
| 1777366536 | 8.33° C | 49% | 967.7 hPa | - | - | - | - |
| 1777365636 | 7.78° C | 50% | 967.6 hPa | - | - | - | - |
* Rain since midnight (hover to see other rain measurements)
** Current wind speed in m/s (hover to see current wind gust speed)